{"data":{"norad_id":55665,"epoch":"2026-09-20T22:00:03.000096Z","epoch_age_seconds":67061,"freshness":"FRESH","line1":"1 55665U 23021AP  26263.91670139  .00008996  00000+0  62408-3 0  9994","line2":"2 55665  70.0011  32.1135 0005408 274.6695 329.6186 15.05865287  5769","mean_motion":15.05865287,"eccentricity":0.0005408,"inclination_deg":70.0011,"raan_deg":32.1135,"arg_perigee_deg":274.6695,"mean_anomaly_deg":329.6186,"bstar":0.00062408,"rev_number":576,"period_min":95.626083716212,"perigee_km":545.10474615176,"apogee_km":552.59697622242,"semimajor_km":6926.9878611871,"source":"CELESTRAK","updated_at":"2026-09-21T09:00:33.308854Z"}}